SCP
0 0 0 0 0 0 0 0 0 0 0 0 0 0 0 0 0 0 0 0 0 0 0 0 0 0 0 0 0 0 0 0 0 0 0 0 0 0 0 0 0 0 0 0 0 0 0 0 0 0 0 0 0 0
0 0 0 0 0 0 0 0 0 0 0 0 0 0 0 0 0 0 0 0 0 0 0 0 0 0 0 0 0 0 0 0 0 0 0 0 0 0 0 0 0 0 0 0 0 0 0 0 0 0 0 0 0 0
0 0 0 0 0 0 0 0 0 0 0 0 0 0 0 0 0 0 0 0 0 0 0 0 0 0 0 0 0 0 0 0 0 0 0 0 0 0 0 0 0 0 0 0 0 0 0 0 0 0 0 0 0 0
0 0 0 0 0 0 0 0 0 0 0 0 0 0 0 0 0 0 0 0 0 0 0 0 0 0 0 0 0 0 0 0 0 0 0 0 0 0 0 0 0 0 0 0 0 0 0 0 0 0 0 0 0 0
0 0 0 0 0 0 0 0 0 0 0 0 0 0 0 0 0 0 0 0 0 0 0 0 0 0 0 0 0 0 0 0 0 0 0 0 0 0 0 0 0 0 0 0 0 0 0 0 -0 0 0 0 0 0
0 0 0 0 0 0 0 0 0 0 0 0 0 0 0 0 0 0 0 0 0 0 0 0 0 0 0 0 0 0 0 0 0 0 0 0 0 0 0 0 0 0 0 0 0 0 0 0 0 0 0 0 0 0
0 0 0 0 0 0 0 0 0 0 0 0 0 0 0 0 0 0 0 0 0 0 0 0 0 0 0 0 0 0 0 0 0 0 0 0 0 0 0 0 0 0 0 0 0 0 0 0 0 0 0 0 0 0
0 0 0 0 0 0 0 0 0 0 0 0 0 0 0 0 0 0 0 0 0 0 0 0 0 0 0 0 0 0 0 0 0 0 0 0 0 0 0 0 0 0 0 0 0 0 0 0 0 0 0 0 0 0
0 0 0 0 0 0 0 0 0 0 0 0 0 0 0 0 0 0 0 0 0 0 0 0 0 0 0 0 0 0 0 0 0 0 0 0 0 0 0 0 0 0 0 0 0 0 0 0 0 0 0 0 0 0
0 0 0 0 0 0 0 0 0 0 0 0 0 0 0 0 0 0 0 0 0 0 0 0 0 0 0 0 0 0 0 0 0 0 0 0 0 0 0 0 0 0 0 0 0 0 0 0 0 0 0 0 0 0
-0 -0 -0 -0 0 0 0 0 0 0 0 0 0 0 0 0 0 0 0 0 0 0 0 0 0 0 0 0 0 0 0 0 0 0 0 0 0 0 0 0 0 0 0 0 0 0 0 0 0 0 0 0 0 0
0 -0 0 -0 0 -0 0 0 0 0 0 0 0 0 0 0 0 0 0 0 0 0 0 0 0 0 0 0 0 0 0 0 0 0 0 0 0 0 0 0 0 0 0 0 0 0 0 0 0 0 0 0 0 0
-0 -0 -0 0 0 -0 0 0 0 0 0 0 0 0 0 0 0 0 0 0 0 0 0 0 0 0 0 0 0 0 0 0 0 0 0 0 0 0 0 0 0 0 0 0 0 0 0 0 0 0 0 0 0 0
-0 -0 -0 -0 0 0 0 0 0 0 0 0 0 0 0 0 0 0 0 0 0 0 0 0 0 0 0 0 0 0 0 0 0 0 0 0 0 0 0 0 0 0 0 0 0 0 0 0 0 0 0 0 0 0
-0 -0 0 -0 -0 0 0 0 0 0 0 0 0 0 0 0 0 0 0 0 0 0 0 0 0 0 0 0 0 0 0 0 0 0 0 0 0 0 0 0 0 0 0 0 0 0 0 0 0 0 0 0 0 0
-0 0 0 0 0 0 0 0 0 0 0 0 0 0 0 0 0 0 0 0 0 0 0 0 0 0 0 0 0 0 0 0 0 0 0 0 0 0 0 0 0 0 0 0 0 0 0 0 0 0 0 0 0 0
0 0 0 0 0 0 0 0 0 0 0 0 0 0 0 0 0 0 0 0 0 0 0 0 0 0 0 0 0 0 0 0 0 0 0 0 0 0 0 0 0 0 0 0 0 0 0 0 0 0 0 0 0 0
-0 0 0 0 0 0 0 0 0 0 0 0 0 0 0 0 0 0 0 0 0 0 0 0 0 0 0 0 0 0 0 0 0 0 0 0 0 0 0 0 0 0 0 0 0 0 0 0 0 0 0 0 0 0
-0 -0 0 0 0 0 0 0 0 0 0 0 0 0 0 0 0 0 0 0 0 0 0 0 0 0 0 0 0 0 0 0 0 0 0 0 0 0 0 0 0 0 0 0 0 0 0 0 0 0 0 0 0 0
0 0 0 0 -0 0 0 0 0 0 0 0 0 0 0 0 0 0 0 0 0 0 0 0 0 0 0 0 0 0 0 0 0 0 0 0 0 0 0 0 0 0 0 0 0 0 0 0 0 0 0 0 0 0
0 0 0 0 -0 0 0 0 0 0 0 0 0 0 0 0 0 0 0 0 0 0 0 0 0 0 0 0 0 0 0 0 0 0 0 0 0 0 0 0 0 0 0 0 0 0 0 0 0 0 0 0 0 0
0 0 0 0 -0 0 0 0 0 0 0 0 0 0 0 0 0 0 0 0 0 0 0 0 0 0 0 0 0 0 0 0 0 0 0 0 0 0 0 0 0 0 0 0 0 0 0 0 0 0 0 0 0 0
0 0 0 0 0 0 0 0 0 0 0 0 0 0 0 0 0 0 0 0 0 0 0 0 0 0 0 0 0 0 0 0 0 0 0 0 0 0 0 0 0 0 0 0 0 0 0 0 0 0 0 0 0 0
0 0 0 0 0 0 0 0 0 0 0 0 0 0 0 0 0 0 0 0 0 0 0 0 0 0 0 0 0 0 0 0 0 0 0 0 0 0 0 0 0 0 0 0 0 0 0 0 0 0 0 0 0 0
0 0 0 0 0 0 0 0 0 0 0 0 0 0 0 0 0 0 0 0 0 0 0 0 0 0 0 0 0 0 0 0 0 0 0 0 0 0 0 0 0 0 0 0 0 0 0 0 0 0 0 0 0 0
0 0 0 0 0 0 0 0 0 0 0 0 0 0 0 0 0 0 0 0 0 0 0 0 0 0 0 0 0 0 0 0 0 0 0 0 0 0 0 0 0 0 0 0 0 0 0 0 0 0 0 0 0 0
0 0 0 0 0 0 0 0 0 0 0 0 0 0 0 0 0 0 0 0 0 0 0 0 0 0 0 0 0 0 0 0 0 0 0 0 0 0 0 0 0 0 0 0 0 0 0 0 0 0 0 0 0 0
0 0 0 0 0 0 0 0 0 0 0 0 0 0 0 0 0 0 0 0 0 0 0 0 0 0 0 0 0 0 0 0 0 0 0 0 0 0 0 0 0 0 0 0 0 0 0 0 0 0 0 0 0 0
-0 -0 0 0 0 0 0 0 0 0 0 0 0 0 0 0 0 0 0 0 0 0 0 0 0 0 0 0 0 0 0 0 0 0 0 0 0 0 0 0 0 0 0 0 0 0 0 0 0 0 0 0 0 0
-0 0 0 0 -0 -0 0 0 0 0 0 0 0 0 0 0 0 0 0 0 0 0 0 0 0 0 0 0 0 0 0 0 0 0 0 0 0 0 0 0 0 0 0 0 0 0 0 0 0 0 0 0 0 0
-0 0 -0 -0 0 0 0 0 0 0 0 0 0 0 0 0 0 0 0 0 0 0 0 0 0 0 0 0 0 0 0 0 0 0 0 0 0 0 0 0 0 0 0 0 0 0 0 0 0 0 0 0 0 0
-0 -0 0 0 -0 -0 0 0 0 0 0 0 0 0 0 0 0 0 0 0 0 0 0 0 0 0 0 0 0 0 0 0 0 0 0 0 0 0 0 0 0 0 0 0 0 0 0 0 0 0 0 0 0 0
0 0 0 0 0 -0 0 0 0 0 0 0 0 0 0 0 0 0 0 -0 -0 0 0 0 0 0 0 0 0 0 0 0 0 0 0 0 0 0 0 0 0 0 0 0 0 0 0 0 0 0 0 0 0 0
Wind_Speed_500mb
49 53 51 51 56 60 59 54 52 51 51 51 46 48 47 44 33 27 19 22 22 10 9 23 16 16 17 17 9 18 11 2 3 5 4 5 5 7 4 5 10 14 15 7 6 6 15 23 11 17 11 15 28 27
54 54 55 53 51 55 56 56 52 56 51 50 50 47 51 50 52 38 23 22 22 7 5 24 26 22 23 24 23 41 4 9 14 6 4 5 5 3 5 5 6 4 8 11 17 10 2 54 7 22 30 38 27 26
49 54 53 58 53 48 58 55 48 53 53 54 58 53 52 52 64 60 35 35 30 12 8 17 23 31 26 26 26 19 9 19 16 12 6 4 6 6 9 10 5 9 6 4 6 7 6 47 12 33 28 30 22 20
53 53 51 54 54 51 54 59 52 53 54 54 59 55 53 50 57 62 46 38 34 13 5 6 19 26 31 37 29 31 17 30 24 15 6 5 4 10 4 2 6 6 17 11 2 3 4 23 50 33 37 27 25 26
51 53 53 52 54 56 58 57 57 51 53 50 53 49 54 47 46 55 52 51 45 25 12 5 6 12 22 32 37 24 20 34 22 8 5 5 8 8 1 3 7 15 11 9 8 30 21 21 51 49 45 43 34 26
50 45 45 42 45 51 58 61 60 56 56 51 52 48 46 46 43 55 22 71 67 45 10 2 2 6 20 30 32 30 27 25 15 13 6 8 8 7 7 7 7 26 26 20 11 22 38 14 25 43 42 43 36 36
44 40 37 38 36 39 46 55 64 57 55 51 50 48 48 47 51 47 16 21 73 55 18 2 3 7 22 27 23 24 29 11 8 9 6 11 6 16 5 11 7 22 19 23 22 21 26 35 42 42 45 41 36 36
33 35 38 42 43 40 38 46 56 53 48 55 47 45 41 48 45 46 36 25 72 51 19 7 2 7 24 11 8 14 14 12 12 10 10 5 10 6 6 8 20 27 26 34 42 39 42 42 42 44 35 31 38 40
41 43 46 48 48 44 44 48 44 43 51 49 45 38 39 51 48 34 56 30 60 23 13 7 13 10 27 11 13 10 11 3 8 4 5 14 5 9 19 27 37 41 38 49 42 46 50 53 53 49 46 42 44 51
51 56 62 59 54 52 48 52 49 49 44 44 51 22 14 20 33 42 39 46 27 19 13 5 16 7 23 12 6 11 9 6 5 8 20 5 7 55 45 49 52 52 49 45 45 47 49 48 46 47 51 50 51 49
55 70 79 83 66 54 55 59 55 50 47 47 23 12 32 65 28 12 11 8 8 6 13 13 13 10 14 6 6 5 6 6 7 8 11 6 7 33 58 68 75 76 77 68 57 62 59 55 49 49 46 40 41 44
47 62 26 19 41 48 57 63 54 57 32 48 39 48 34 9 9 5 6 6 5 5 7 9 13 13 18 12 6 10 6 4 8 11 6 6 9 17 8 29 45 50 59 64 60 59 57 54 49 46 42 37 39 43
37 51 67 7 40 47 60 56 61 59 64 55 18 14 13 6 7 8 7 2 4 7 15 13 5 11 12 7 5 5 8 6 19 6 8 11 8 25 23 12 17 23 30 38 40 39 37 35 36 38 35 33 33 34
37 40 50 61 6 47 39 64 90 64 51 9 6 10 7 6 6 8 10 10 9 14 37 39 9 6 9 5 5 9 4 6 7 9 12 2 26 33 27 20 18 18 18 20 20 19 18 19 22 23 24 23 23 24
33 40 40 51 59 52 59 76 73 59 14 9 7 8 4 5 14 9 18 16 13 42 50 16 11 8 3 6 6 8 5 7 9 10 3 23 33 33 28 21 14 10 5 5 7 9 11 12 14 14 17 18 19 21
25 43 55 45 42 37 36 46 52 29 9 8 13 9 5 7 5 5 11 13 18 45 27 11 6 6 5 8 8 9 13 12 4 2 16 26 26 26 26 23 18 14 10 6 2 4 8 11 13 16 20 21 21 19
36 44 39 34 30 25 12 22 16 16 12 9 6 18 14 20 10 9 9 8 35 17 5 6 9 12 5 5 7 9 4 2 5 11 16 23 25 26 22 19 16 13 10 6 6 9 11 15 18 20 22 23 21 20
34 29 28 31 18 18 30 23 15 13 13 16 6 7 18 20 13 16 13 16 10 3 3 4 10 4 5 7 5 4 10 10 5 13 18 23 21 21 20 17 14 14 12 10 11 15 15 16 17 20 21 23 22 18
20 22 27 27 21 12 9 11 12 8 10 9 13 20 20 23 35 24 15 16 17 16 14 10 12 6 5 8 7 8 12 15 15 20 15 21 20 19 15 13 15 15 16 15 18 19 21 21 18 17 16 16 15 14
19 20 20 19 13 10 10 12 11 12 5 8 12 13 14 15 16 33 36 28 24 17 19 12 7 7 8 7 9 10 12 13 17 12 2 17 18 16 12 11 8 10 10 13 15 16 16 16 15 14 12 10 7 5
15 18 18 14 21 20 14 11 15 12 9 13 10 11 12 16 19 24 27 27 26 16 7 14 17 14 11 5 8 10 10 11 9 8 9 12 11 9 11 12 12 11 11 11 10 12 10 10 9 8 7 6 5 5
7 11 13 15 12 12 15 19 11 8 9 8 10 12 14 6 11 17 14 35 15 15 15 21 27 19 12 10 10 11 11 10 10 11 10 9 10 10 11 11 10 9 9 8 7 6 5 5 5 5 4 5 5 6
15 14 12 14 10 15 7 10 8 11 8 5 7 8 7 7 11 15 14 15 12 26 27 26 19 13 15 15 14 14 15 16 14 15 16 16 15 15 13 11 10 8 7 7 6 4 3 1 1 2 3 5 5 5
19 13 17 15 22 5 6 12 10 9 9 8 7 7 7 8 9 13 8 9 19 28 29 28 23 16 18 21 24 23 22 23 22 19 20 20 18 18 17 15 13 11 9 8 6 5 4 4 5 5 6 7 8 8
12 23 17 15 21 11 11 8 9 8 8 9 7 7 6 8 7 8 6 13 26 32 31 27 29 29 26 25 25 25 22 21 24 27 26 22 21 18 17 16 15 14 11 10 9 8 8 8 8 9 9 10 12 14
17 21 14 13 13 9 8 7 9 9 6 7 8 6 7 6 9 8 3 23 20 27 27 27 28 29 31 26 24 22 21 18 17 18 22 21 19 18 17 14 11 11 12 11 10 10 11 11 12 13 15 17 19 21
13 10 16 19 10 8 8 13 13 10 10 10 6 7 6 10 8 3 8 21 18 20 21 25 29 33 35 32 25 22 20 21 21 19 20 20 21 21 18 16 15 15 14 14 15 15 15 15 16 18 19 19 22 26
13 23 12 26 16 23 8 8 10 10 7 14 4 11 7 6 2 6 12 15 16 21 24 23 25 26 28 30 29 24 18 15 12 8 8 12 12 12 20 18 19 20 21 21 21 21 22 22 24 25 28 30 29 29
15 33 11 12 13 18 17 10 7 9 13 5 4 5 7 11 20 22 22 23 22 21 22 22 23 21 20 22 22 19 16 14 14 15 18 20 18 18 24 24 24 26 28 27 25 27 27 26 33 38 40 42 43 46
19 29 8 12 10 11 18 16 22 28 37 38 40 57 48 43 34 28 26 24 24 25 24 23 24 27 29 28 25 22 23 23 21 28 34 36 40 42 43 42 41 40 41 43 44 44 42 42 42 42 44 46 48 51
21 17 14 17 11 12 25 38 43 44 48 48 46 48 41 36 51 48 44 35 25 22 21 28 34 36 37 35 36 36 35 27 34 35 37 42 46 48 47 46 44 46 48 49 51 53 54 55 55 56 57 56 55 55
19 17 8 7 4 9 9 11 15 19 15 14 12 12 9 7 7 6 26 42 50 38 36 38 43 44 37 33 33 33 35 37 40 41 41 42 43 43 42 41 41 45 48 52 53 53 53 55 56 55 57 57 57 57
12 18 17 8 5 5 11 5 5 6 4 4 6 8 8 6 7 4 15 30 52 43 37 38 37 35 33 34 33 33 34 34 35 36 37 39 40 41 40 40 47 49 50 52 53 52 54 55 56 56 56 56 56 56
Wind_Direction_500mb
281 274 269 268 261 260 260 270 250 252 248 236 242 237 236 236 233 219 221 201 203 184 193 209 181 158 147 155 144 149 116 180 109 198 167 180 134 196 115 128 180 160 155 181 124 196 257 154 121 174 174 141 159 175
281 278 276 269 264 257 255 261 259 247 249 239 240 238 234 226 239 213 206 187 187 195 218 213 221 209 198 192 147 167 162 159 157 124 164 124 122 154 112 194 345 245 194 179 189 202 107 174 137 178 153 152 160 173
282 280 277 269 263 264 251 251 263 249 245 239 238 235 234 223 219 216 206 191 180 196 243 219 221 216 211 210 204 147 193 176 177 136 138 128 146 152 160 216 183 238 167 179 108 204 202 194 180 178 162 160 180 203
287 278 279 272 261 262 253 247 256 251 239 236 231 231 230 227 225 214 204 202 193 143 150 238 222 223 220 214 209 204 193 177 166 149 95 135 138 204 203 150 189 179 136 146 56 358 208 224 214 192 200 209 214 214
290 281 274 264 260 254 252 247 245 250 238 237 223 227 226 218 218 217 223 219 214 189 180 192 230 215 212 207 205 207 191 169 153 128 130 181 140 126 50 21 254 179 153 169 200 193 181 203 212 213 218 231 230 223
296 280 275 276 270 266 244 240 238 244 231 235 223 223 226 224 210 202 199 211 213 205 159 180 213 187 186 189 197 196 188 179 172 139 151 139 151 127 138 211 232 167 168 191 186 189 198 219 219 219 237 242 235 236
289 283 275 278 285 276 246 228 227 234 226 225 224 220 225 221 213 201 191 203 197 200 161 51 313 152 162 157 165 179 186 180 158 140 120 132 148 157 106 236 115 165 187 197 210 195 209 224 233 247 252 247 237 239
288 288 284 284 279 282 254 226 228 228 225 218 221 220 225 223 218 215 175 158 181 173 176 158 206 152 166 135 120 146 154 154 181 146 130 115 111 92 246 242 230 231 212 220 227 229 247 261 264 262 260 246 227 241
298 293 288 285 272 278 250 230 225 218 213 214 213 211 219 218 201 197 187 177 181 173 164 124 150 187 163 134 131 138 146 102 164 123 197 146 170 214 226 213 238 232 216 246 251 254 258 254 265 262 258 254 245 257
295 292 286 276 270 267 238 221 217 211 206 200 192 170 193 181 180 181 158 168 175 191 149 121 135 161 171 143 136 122 154 164 161 226 144 170 238 243 241 241 251 260 260 256 250 252 248 249 254 258 258 260 261 261
304 306 287 255 254 239 220 213 211 201 194 186 157 135 153 136 134 137 145 165 144 141 161 138 148 134 177 132 156 189 160 160 163 225 150 188 264 245 243 245 252 260 266 267 265 273 276 277 275 276 269 255 249 248
330 0 337 242 206 201 205 205 206 201 208 169 163 140 153 122 99 121 123 97 92 174 138 131 158 126 145 150 113 160 149 107 193 142 137 185 254 48 68 232 250 260 265 269 272 273 274 274 273 268 263 257 249 244
4 5 30 212 199 208 200 211 200 205 187 131 130 142 155 139 117 118 123 126 163 177 159 133 95 119 125 140 101 140 156 179 120 146 202 223 72 8 3 322 261 267 268 266 267 271 270 262 256 250 249 246 239 233
26 15 17 33 84 220 229 175 166 145 146 109 110 98 119 151 160 177 173 166 162 154 149 130 108 138 118 111 140 135 105 133 169 176 228 320 352 349 351 340 314 289 269 257 262 260 251 242 235 232 230 224 220 209
44 44 35 30 34 88 123 148 151 152 87 92 94 115 148 90 59 81 113 120 114 147 143 105 81 97 93 133 145 108 117 183 199 220 265 342 349 352 354 1 357 341 305 249 234 237 229 219 215 206 191 185 181 183
59 52 44 37 32 45 69 109 119 101 72 71 55 98 72 76 334 72 78 95 117 143 128 107 119 96 188 151 146 194 150 203 208 265 330 340 351 355 5 14 19 28 42 57 119 191 201 187 180 176 170 167 168 170
63 51 37 45 45 45 47 71 66 61 72 57 37 59 85 74 89 78 85 109 155 176 155 137 135 197 97 133 117 10 89 95 330 355 355 350 350 1 12 18 19 38 50 64 105 139 158 159 160 159 161 157 157 158
51 33 32 32 47 59 57 44 59 57 62 41 78 16 68 61 76 67 78 103 149 76 41 141 108 74 45 101 119 72 53 18 48 6 356 1 7 12 18 26 40 59 71 89 114 126 134 136 146 145 144 146 149 154
49 22 12 19 44 71 67 49 47 87 58 67 72 61 71 75 61 62 76 94 93 102 101 40 62 52 63 46 29 38 10 8 346 349 18 19 18 18 17 43 61 71 83 104 112 120 132 133 137 140 146 151 159 159
25 18 24 24 52 62 65 46 46 82 71 58 63 58 67 67 68 51 60 65 70 44 42 39 46 32 18 354 338 337 343 349 356 27 63 12 24 33 37 35 54 88 110 121 127 130 134 138 139 141 150 163 164 165
2 36 52 78 54 61 70 37 54 59 65 74 67 61 68 58 44 37 31 29 60 38 55 42 10 2 352 355 3 355 352 350 350 350 340 1 21 37 59 77 83 88 93 103 111 118 122 131 141 150 160 168 173 188
73 79 82 57 63 64 65 39 66 62 59 69 51 50 46 45 39 26 39 47 56 28 3 347 349 359 36 40 30 22 23 25 34 39 48 52 78 80 83 84 90 101 105 109 114 110 105 118 129 144 181 202 205 212
118 109 65 42 76 48 25 33 63 32 69 23 53 49 30 49 49 32 71 60 63 7 3 5 13 51 56 48 47 46 50 48 61 68 76 75 82 87 80 79 81 79 77 86 94 105 113 153 231 222 242 253 255 249
96 56 33 36 32 39 26 34 42 52 54 41 53 59 30 33 55 60 71 59 6 17 28 32 48 72 73 67 60 60 62 64 67 75 75 75 78 81 82 81 79 72 69 65 51 31 6 333 309 296 274 259 255 265
78 15 21 8 19 28 34 25 16 43 62 26 75 59 26 39 67 56 63 10 11 23 31 47 56 59 60 64 61 57 67 70 69 71 72 71 73 74 75 70 59 52 43 28 11 356 346 331 313 294 278 268 270 276
67 18 36 357 9 36 357 53 34 20 24 64 46 2 56 66 66 57 38 355 1 16 25 39 45 54 53 51 52 55 57 62 62 65 65 61 61 59 58 52 45 24 12 4 358 347 333 319 305 294 285 281 283 285
46 350 11 21 358 351 53 50 43 51 55 32 353 17 49 65 64 337 15 3 12 34 56 67 68 62 57 55 54 55 62 64 62 72 78 62 48 40 33 26 16 4 355 347 341 333 326 319 315 309 301 293 290 288
52 27 20 342 41 35 49 45 34 26 5 350 331 39 73 67 157 32 36 45 78 91 93 77 67 58 53 53 55 57 56 48 45 50 33 22 2 3 8 355 345 337 330 326 322 317 315 314 312 304 298 298 299 296
29 354 8 24 46 48 41 32 13 353 334 2 52 77 90 72 89 93 87 91 104 102 88 74 64 56 50 40 29 23 20 20 17 11 2 349 339 327 329 326 320 314 309 304 303 303 303 301 294 296 298 297 295 294
360 6 51 46 44 42 16 40 45 64 75 84 100 103 94 87 89 94 92 85 76 67 58 45 30 16 7 359 357 7 353 342 340 338 331 325 321 319 319 316 311 307 302 301 300 298 295 292 289 286 286 287 288 290
356 17 55 50 71 54 66 78 81 85 93 94 98 98 104 101 79 69 60 51 45 40 34 25 15 8 2 356 350 344 339 329 323 324 321 315 312 312 312 311 309 304 301 302 302 301 300 299 298 298 297 296 296 295
26 37 73 85 85 78 84 78 78 94 91 93 80 94 93 89 78 62 27 21 17 11 6 357 356 359 355 348 341 334 331 328 324 324 321 320 318 318 317 315 308 304 305 306 306 306 306 305 304 304 303 302 301 300
40 41 52 70 68 49 26 49 91 104 98 75 61 75 75 71 80 24 354 354 353 352 349 347 348 348 345 340 337 330 328 328 327 325 322 320 317 317 315 308 304 308 308 306 306 306 305 304 303 302 302 301 300 299
Wind_Speed_850mb
49 53 51 51 56 60 59 54 52 51 51 51 46 48 47 44 33 27 19 22 22 10 9 23 16 16 17 17 9 18 11 2 3 5 4 5 5 7 4 5 10 14 15 7 6 6 15 23 11 17 11 15 28 27
54 54 55 53 51 55 56 56 52 56 51 50 50 47 51 50 52 38 23 22 22 7 5 24 26 22 23 24 23 41 4 9 14 6 4 5 5 3 5 5 6 4 8 11 17 10 2 54 7 22 30 38 27 26
49 54 53 58 53 48 58 55 48 53 53 54 58 53 52 52 64 60 35 35 30 12 8 17 23 31 26 26 26 19 9 19 16 12 6 4 6 6 9 10 5 9 6 4 6 7 6 47 12 33 28 30 22 20
53 53 51 54 54 51 54 59 52 53 54 54 59 55 53 50 57 62 46 38 34 13 5 6 19 26 31 37 29 31 17 30 24 15 6 5 4 10 4 2 6 6 17 11 2 3 4 23 50 33 37 27 25 26
51 53 53 52 54 56 58 57 57 51 53 50 53 49 54 47 46 55 52 51 45 25 12 5 6 12 22 32 37 24 20 34 22 8 5 5 8 8 1 3 7 15 11 9 8 30 21 21 51 49 45 43 34 26
50 45 45 42 45 51 58 61 60 56 56 51 52 48 46 46 43 55 22 71 67 45 10 2 2 6 20 30 32 30 27 25 15 13 6 8 8 7 7 7 7 26 26 20 11 22 38 14 25 43 42 43 36 36
44 40 37 38 36 39 46 55 64 57 55 51 50 48 48 47 51 47 16 21 73 55 18 2 3 7 22 27 23 24 29 11 8 9 6 11 6 16 5 11 7 22 19 23 22 21 26 35 42 42 45 41 36 36
33 35 38 42 43 40 38 46 56 53 48 55 47 45 41 48 45 46 36 25 72 51 19 7 2 7 24 11 8 14 14 12 12 10 10 5 10 6 6 8 20 27 26 34 42 39 42 42 42 44 35 31 38 40
41 43 46 48 48 44 44 48 44 43 51 49 45 38 39 51 48 34 56 30 60 23 13 7 13 10 27 11 13 10 11 3 8 4 5 14 5 9 19 27 37 41 38 49 42 46 50 53 53 49 46 42 44 51
51 56 62 59 54 52 48 52 49 49 44 44 51 22 14 20 33 42 39 46 27 19 13 5 16 7 23 12 6 11 9 6 5 8 20 5 7 55 45 49 52 52 49 45 45 47 49 48 46 47 51 50 51 49
55 70 79 83 66 54 55 59 55 50 47 47 23 12 32 65 28 12 11 8 8 6 13 13 13 10 14 6 6 5 6 6 7 8 11 6 7 33 58 68 75 76 77 68 57 62 59 55 49 49 46 40 41 44
47 62 26 19 41 48 57 63 54 57 32 48 39 48 34 9 9 5 6 6 5 5 7 9 13 13 18 12 6 10 6 4 8 11 6 6 9 17 8 29 45 50 59 64 60 59 57 54 49 46 42 37 39 43
37 51 67 7 40 47 60 56 61 59 64 55 18 14 13 6 7 8 7 2 4 7 15 13 5 11 12 7 5 5 8 6 19 6 8 11 8 25 23 12 17 23 30 38 40 39 37 35 36 38 35 33 33 34
37 40 50 61 6 47 39 64 90 64 51 9 6 10 7 6 6 8 10 10 9 14 37 39 9 6 9 5 5 9 4 6 7 9 12 2 26 33 27 20 18 18 18 20 20 19 18 19 22 23 24 23 23 24
33 40 40 51 59 52 59 76 73 59 14 9 7 8 4 5 14 9 18 16 13 42 50 16 11 8 3 6 6 8 5 7 9 10 3 23 33 33 28 21 14 10 5 5 7 9 11 12 14 14 17 18 19 21
25 43 55 45 42 37 36 46 52 29 9 8 13 9 5 7 5 5 11 13 18 45 27 11 6 6 5 8 8 9 13 12 4 2 16 26 26 26 26 23 18 14 10 6 2 4 8 11 13 16 20 21 21 19
36 44 39 34 30 25 12 22 16 16 12 9 6 18 14 20 10 9 9 8 35 17 5 6 9 12 5 5 7 9 4 2 5 11 16 23 25 26 22 19 16 13 10 6 6 9 11 15 18 20 22 23 21 20
34 29 28 31 18 18 30 23 15 13 13 16 6 7 18 20 13 16 13 16 10 3 3 4 10 4 5 7 5 4 10 10 5 13 18 23 21 21 20 17 14 14 12 10 11 15 15 16 17 20 21 23 22 18
20 22 27 27 21 12 9 11 12 8 10 9 13 20 20 23 35 24 15 16 17 16 14 10 12 6 5 8 7 8 12 15 15 20 15 21 20 19 15 13 15 15 16 15 18 19 21 21 18 17 16 16 15 14
19 20 20 19 13 10 10 12 11 12 5 8 12 13 14 15 16 33 36 28 24 17 19 12 7 7 8 7 9 10 12 13 17 12 2 17 18 16 12 11 8 10 10 13 15 16 16 16 15 14 12 10 7 5
15 18 18 14 21 20 14 11 15 12 9 13 10 11 12 16 19 24 27 27 26 16 7 14 17 14 11 5 8 10 10 11 9 8 9 12 11 9 11 12 12 11 11 11 10 12 10 10 9 8 7 6 5 5
7 11 13 15 12 12 15 19 11 8 9 8 10 12 14 6 11 17 14 35 15 15 15 21 27 19 12 10 10 11 11 10 10 11 10 9 10 10 11 11 10 9 9 8 7 6 5 5 5 5 4 5 5 6
15 14 12 14 10 15 7 10 8 11 8 5 7 8 7 7 11 15 14 15 12 26 27 26 19 13 15 15 14 14 15 16 14 15 16 16 15 15 13 11 10 8 7 7 6 4 3 1 1 2 3 5 5 5
19 13 17 15 22 5 6 12 10 9 9 8 7 7 7 8 9 13 8 9 19 28 29 28 23 16 18 21 24 23 22 23 22 19 20 20 18 18 17 15 13 11 9 8 6 5 4 4 5 5 6 7 8 8
12 23 17 15 21 11 11 8 9 8 8 9 7 7 6 8 7 8 6 13 26 32 31 27 29 29 26 25 25 25 22 21 24 27 26 22 21 18 17 16 15 14 11 10 9 8 8 8 8 9 9 10 12 14
17 21 14 13 13 9 8 7 9 9 6 7 8 6 7 6 9 8 3 23 20 27 27 27 28 29 31 26 24 22 21 18 17 18 22 21 19 18 17 14 11 11 12 11 10 10 11 11 12 13 15 17 19 21
13 10 16 19 10 8 8 13 13 10 10 10 6 7 6 10 8 3 8 21 18 20 21 25 29 33 35 32 25 22 20 21 21 19 20 20 21 21 18 16 15 15 14 14 15 15 15 15 16 18 19 19 22 26
13 23 12 26 16 23 8 8 10 10 7 14 4 11 7 6 2 6 12 15 16 21 24 23 25 26 28 30 29 24 18 15 12 8 8 12 12 12 20 18 19 20 21 21 21 21 22 22 24 25 28 30 29 29
15 33 11 12 13 18 17 10 7 9 13 5 4 5 7 11 20 22 22 23 22 21 22 22 23 21 20 22 22 19 16 14 14 15 18 20 18 18 24 24 24 26 28 27 25 27 27 26 33 38 40 42 43 46
19 29 8 12 10 11 18 16 22 28 37 38 40 57 48 43 34 28 26 24 24 25 24 23 24 27 29 28 25 22 23 23 21 28 34 36 40 42 43 42 41 40 41 43 44 44 42 42 42 42 44 46 48 51
21 17 14 17 11 12 25 38 43 44 48 48 46 48 41 36 51 48 44 35 25 22 21 28 34 36 37 35 36 36 35 27 34 35 37 42 46 48 47 46 44 46 48 49 51 53 54 55 55 56 57 56 55 55
19 17 8 7 4 9 9 11 15 19 15 14 12 12 9 7 7 6 26 42 50 38 36 38 43 44 37 33 33 33 35 37 40 41 41 42 43 43 42 41 41 45 48 52 53 53 53 55 56 55 57 57 57 57
12 18 17 8 5 5 11 5 5 6 4 4 6 8 8 6 7 4 15 30 52 43 37 38 37 35 33 34 33 33 34 34 35 36 37 39 40 41 40 40 47 49 50 52 53 52 54 55 56 56 56 56 56 56
Wind_Direction_850mb
281 274 269 268 261 260 260 270 250 252 248 236 242 237 236 236 233 219 221 201 203 184 193 209 181 158 147 155 144 149 116 180 109 198 167 180 134 196 115 128 180 160 155 181 124 196 257 154 121 174 174 141 159 175
281 278 276 269 264 257 255 261 259 247 249 239 240 238 234 226 239 213 206 187 187 195 218 213 221 209 198 192 147 167 162 159 157 124 164 124 122 154 112 194 345 245 194 179 189 202 107 174 137 178 153 152 160 173
282 280 277 269 263 264 251 251 263 249 245 239 238 235 234 223 219 216 206 191 180 196 243 219 221 216 211 210 204 147 193 176 177 136 138 128 146 152 160 216 183 238 167 179 108 204 202 194 180 178 162 160 180 203
287 278 279 272 261 262 253 247 256 251 239 236 231 231 230 227 225 214 204 202 193 143 150 238 222 223 220 214 209 204 193 177 166 149 95 135 138 204 203 150 189 179 136 146 56 358 208 224 214 192 200 209 214 214
290 281 274 264 260 254 252 247 245 250 238 237 223 227 226 218 218 217 223 219 214 189 180 192 230 215 212 207 205 207 191 169 153 128 130 181 140 126 50 21 254 179 153 169 200 193 181 203 212 213 218 231 230 223
296 280 275 276 270 266 244 240 238 244 231 235 223 223 226 224 210 202 199 211 213 205 159 180 213 187 186 189 197 196 188 179 172 139 151 139 151 127 138 211 232 167 168 191 186 189 198 219 219 219 237 242 235 236
289 283 275 278 285 276 246 228 227 234 226 225 224 220 225 221 213 201 191 203 197 200 161 51 313 152 162 157 165 179 186 180 158 140 120 132 148 157 106 236 115 165 187 197 210 195 209 224 233 247 252 247 237 239
288 288 284 284 279 282 254 226 228 228 225 218 221 220 225 223 218 215 175 158 181 173 176 158 206 152 166 135 120 146 154 154 181 146 130 115 111 92 246 242 230 231 212 220 227 229 247 261 264 262 260 246 227 241
298 293 288 285 272 278 250 230 225 218 213 214 213 211 219 218 201 197 187 177 181 173 164 124 150 187 163 134 131 138 146 102 164 123 197 146 170 214 226 213 238 232 216 246 251 254 258 254 265 262 258 254 245 257
295 292 286 276 270 267 238 221 217 211 206 200 192 170 193 181 180 181 158 168 175 191 149 121 135 161 171 143 136 122 154 164 161 226 144 170 238 243 241 241 251 260 260 256 250 252 248 249 254 258 258 260 261 261
304 306 287 255 254 239 220 213 211 201 194 186 157 135 153 136 134 137 145 165 144 141 161 138 148 134 177 132 156 189 160 160 163 225 150 188 264 245 243 245 252 260 266 267 265 273 276 277 275 276 269 255 249 248
330 0 337 242 206 201 205 205 206 201 208 169 163 140 153 122 99 121 123 97 92 174 138 131 158 126 145 150 113 160 149 107 193 142 137 185 254 48 68 232 250 260 265 269 272 273 274 274 273 268 263 257 249 244
4 5 30 212 199 208 200 211 200 205 187 131 130 142 155 139 117 118 123 126 163 177 159 133 95 119 125 140 101 140 156 179 120 146 202 223 72 8 3 322 261 267 268 266 267 271 270 262 256 250 249 246 239 233
26 15 17 33 84 220 229 175 166 145 146 109 110 98 119 151 160 177 173 166 162 154 149 130 108 138 118 111 140 135 105 133 169 176 228 320 352 349 351 340 314 289 269 257 262 260 251 242 235 232 230 224 220 209
44 44 35 30 34 88 123 148 151 152 87 92 94 115 148 90 59 81 113 120 114 147 143 105 81 97 93 133 145 108 117 183 199 220 265 342 349 352 354 1 357 341 305 249 234 237 229 219 215 206 191 185 181 183
59 52 44 37 32 45 69 109 119 101 72 71 55 98 72 76 334 72 78 95 117 143 128 107 119 96 188 151 146 194 150 203 208 265 330 340 351 355 5 14 19 28 42 57 119 191 201 187 180 176 170 167 168 170
63 51 37 45 45 45 47 71 66 61 72 57 37 59 85 74 89 78 85 109 155 176 155 137 135 197 97 133 117 10 89 95 330 355 355 350 350 1 12 18 19 38 50 64 105 139 158 159 160 159 161 157 157 158
51 33 32 32 47 59 57 44 59 57 62 41 78 16 68 61 76 67 78 103 149 76 41 141 108 74 45 101 119 72 53 18 48 6 356 1 7 12 18 26 40 59 71 89 114 126 134 136 146 145 144 146 149 154
49 22 12 19 44 71 67 49 47 87 58 67 72 61 71 75 61 62 76 94 93 102 101 40 62 52 63 46 29 38 10 8 346 349 18 19 18 18 17 43 61 71 83 104 112 120 132 133 137 140 146 151 159 159
25 18 24 24 52 62 65 46 46 82 71 58 63 58 67 67 68 51 60 65 70 44 42 39 46 32 18 354 338 337 343 349 356 27 63 12 24 33 37 35 54 88 110 121 127 130 134 138 139 141 150 163 164 165
2 36 52 78 54 61 70 37 54 59 65 74 67 61 68 58 44 37 31 29 60 38 55 42 10 2 352 355 3 355 352 350 350 350 340 1 21 37 59 77 83 88 93 103 111 118 122 131 141 150 160 168 173 188
73 79 82 57 63 64 65 39 66 62 59 69 51 50 46 45 39 26 39 47 56 28 3 347 349 359 36 40 30 22 23 25 34 39 48 52 78 80 83 84 90 101 105 109 114 110 105 118 129 144 181 202 205 212
118 109 65 42 76 48 25 33 63 32 69 23 53 49 30 49 49 32 71 60 63 7 3 5 13 51 56 48 47 46 50 48 61 68 76 75 82 87 80 79 81 79 77 86 94 105 113 153 231 222 242 253 255 249
96 56 33 36 32 39 26 34 42 52 54 41 53 59 30 33 55 60 71 59 6 17 28 32 48 72 73 67 60 60 62 64 67 75 75 75 78 81 82 81 79 72 69 65 51 31 6 333 309 296 274 259 255 265
78 15 21 8 19 28 34 25 16 43 62 26 75 59 26 39 67 56 63 10 11 23 31 47 56 59 60 64 61 57 67 70 69 71 72 71 73 74 75 70 59 52 43 28 11 356 346 331 313 294 278 268 270 276
67 18 36 357 9 36 357 53 34 20 24 64 46 2 56 66 66 57 38 355 1 16 25 39 45 54 53 51 52 55 57 62 62 65 65 61 61 59 58 52 45 24 12 4 358 347 333 319 305 294 285 281 283 285
46 350 11 21 358 351 53 50 43 51 55 32 353 17 49 65 64 337 15 3 12 34 56 67 68 62 57 55 54 55 62 64 62 72 78 62 48 40 33 26 16 4 355 347 341 333 326 319 315 309 301 293 290 288
52 27 20 342 41 35 49 45 34 26 5 350 331 39 73 67 157 32 36 45 78 91 93 77 67 58 53 53 55 57 56 48 45 50 33 22 2 3 8 355 345 337 330 326 322 317 315 314 312 304 298 298 299 296
29 354 8 24 46 48 41 32 13 353 334 2 52 77 90 72 89 93 87 91 104 102 88 74 64 56 50 40 29 23 20 20 17 11 2 349 339 327 329 326 320 314 309 304 303 303 303 301 294 296 298 297 295 294
360 6 51 46 44 42 16 40 45 64 75 84 100 103 94 87 89 94 92 85 76 67 58 45 30 16 7 359 357 7 353 342 340 338 331 325 321 319 319 316 311 307 302 301 300 298 295 292 289 286 286 287 288 290
356 17 55 50 71 54 66 78 81 85 93 94 98 98 104 101 79 69 60 51 45 40 34 25 15 8 2 356 350 344 339 329 323 324 321 315 312 312 312 311 309 304 301 302 302 301 300 299 298 298 297 296 296 295
26 37 73 85 85 78 84 78 78 94 91 93 80 94 93 89 78 62 27 21 17 11 6 357 356 359 355 348 341 334 331 328 324 324 321 320 318 318 317 315 308 304 305 306 306 306 306 305 304 304 303 302 301 300
40 41 52 70 68 49 26 49 91 104 98 75 61 75 75 71 80 24 354 354 353 352 349 347 348 348 345 340 337 330 328 328 327 325 322 320 317 317 315 308 304 308 308 306 306 306 305 304 303 302 302 301 300 299